Change the Weather History Date:

Wednesday, January 9, 2013

  Actual Average (KAPN) Record (KAPN)
Temperature  
Mean Temperature 36 °F 20 °F  
Max Temperature 40 °F 27 °F 46 °F (2002)
Min Temperature 31 °F 12 °F -19 °F (1977)
Degree Days  
Heating Degree Days 30 45  
Month to date heating degree days 403  
Since 1 July heating degree days 3464  
Moisture  
Dew Point 26 °F    
Average Humidity 69    
Maximum Humidity 79    
Minimum Humidity 58    
Precipitation  
Precipitation 0.00 in 0.06 in 0.49 in (1964)
Month to date precipitation 0.52  
Year to date precipitation 0.52  
Snow  
Snow 0.00 in 0.70 in 7.70 in (1969)
Month to date snowfall 6.2  
Since 1 July snowfall 33.5  
Snow Depth -    
Sea Level Pressure  
Sea Level Pressure 29.97 in    
Wind  
Wind Speed 13 mph (WSW)    
Max Wind Speed 23 mph    
Max Gust Speed 38 mph    
Visibility 10 miles    
Events Snow    
T = Trace of Precipitation, MM = Missing Value Source: NWS Daily Summary

Daily Weather History Graph

Daily Weather History Graph

Search for Another Location

Airport or City:

Trip Planner

Search our weather history database for the weather conditions in past years. The results will help you decide how hot, cold, wet, or windy it might be!

Date:

Astronomy

Jan. 09, 2013 Rise Set
Actual Time 8:13 AM EST 5:11 PM EST
Civil Twilight 7:40 AM EST 5:45 PM EST
Nautical Twilight 7:03 AM EST 6:22 PM EST
Astronomical Twilight 6:27 AM EST 6:57 PM EST
Moon 5:52 AM EST (1/9) 3:11 PM EST (1/9)
Length of Visible Light 10h 04m
Length of Day
8h 57m
Waning Crescent, 6% of the Moon is Illuminated
Jan 9
Waning Crescent
Jan 11
New
Jan 18
First Quarter
Jan 26
Full
Feb 3
Last Quarter

Hourly Weather History & Observations

Time (EST) Temp. Windchill Dew Point Humidity Pressure Visibility Wind Dir Wind Speed Gust Speed Precip Events Conditions
12:55 AM 31.1 °F 23.1 °F 25.3 °F 79% 29.98 in 7.0 mi South 9.2 mph - N/A   Scattered Clouds
1:15 AM 31.5 °F 21.8 °F 25.2 °F 78% 29.97 in 7.0 mi South 12.7 mph 18.4 mph N/A   Scattered Clouds
1:36 AM 32.0 °F 23.6 °F 25.2 °F 76% 29.95 in 7.0 mi South 10.4 mph 19.6 mph N/A   Mostly Cloudy
1:55 AM 32.0 °F 22.5 °F 25.3 °F 76% 29.94 in 7.0 mi South 12.7 mph 18.4 mph N/A   Overcast
2:15 AM 32.0 °F 23.6 °F 24.8 °F 75% 29.93 in 7.0 mi South 10.4 mph 17.3 mph N/A   Mostly Cloudy
2:36 AM 32.0 °F 22.1 °F 24.8 °F 75% 29.91 in 7.0 mi South 13.8 mph 20.7 mph N/A   Mostly Cloudy
2:55 AM 32.2 °F 23.2 °F 24.8 °F 74% 29.90 in 7.0 mi South 11.5 mph - N/A   Mostly Cloudy
3:15 AM 32.2 °F 22.7 °F 24.8 °F 74% 29.90 in 10.0 mi South 12.7 mph 18.4 mph N/A   Mostly Cloudy
3:35 AM 32.7 °F 23.0 °F 24.8 °F 73% 29.88 in 10.0 mi South 13.8 mph - N/A   Overcast
3:55 AM 33.1 °F 22.2 °F 24.8 °F 72% 29.87 in 10.0 mi South 17.3 mph 21.9 mph N/A   Overcast
4:16 AM 33.3 °F 24.1 °F 24.8 °F 71% 29.86 in 10.0 mi South 12.7 mph - N/A   Overcast
4:35 AM 33.3 °F 23.7 °F 25.2 °F 72% 29.87 in 10.0 mi SSW 13.8 mph 17.3 mph N/A   Overcast
4:55 AM 32.9 °F 23.7 °F 26.4 °F 77% 29.85 in 7.0 mi South 12.7 mph 18.4 mph N/A Snow Light Snow
5:16 AM 32.9 °F 23.7 °F 27.1 °F 79% 29.84 in 7.0 mi South 12.7 mph - N/A   Overcast
5:35 AM 33.1 °F 23.4 °F 26.6 °F 77% 29.82 in 10.0 mi South 13.8 mph - N/A   Mostly Cloudy
5:55 AM 33.1 °F 24.4 °F 26.6 °F 77% 29.80 in 10.0 mi South 11.5 mph - N/A   Scattered Clouds
6:16 AM 33.3 °F 25.1 °F 27.1 °F 78% 29.78 in 10.0 mi SSW 10.4 mph 20.7 mph N/A   Mostly Cloudy
6:35 AM 33.8 °F 27.7 °F 27.5 °F 78% 29.80 in 10.0 mi SSW 6.9 mph 16.1 mph N/A   Mostly Cloudy
6:55 AM 34.0 °F 29.8 °F 28.2 °F 79% 29.80 in 10.0 mi SSW 4.6 mph - N/A   Overcast
7:15 AM 34.7 °F 29.6 °F 28.6 °F 78% 29.80 in 10.0 mi SSW 5.8 mph - N/A   Overcast
7:35 AM 35.2 °F 28.8 °F 29.3 °F 79% 29.80 in 10.0 mi SSW 8.1 mph - N/A   Overcast
7:55 AM 35.8 °F 28.8 °F 29.8 °F 79% 29.80 in 10.0 mi SSW 9.2 mph 18.4 mph N/A   Overcast
8:15 AM 36.1 °F 27.7 °F 30.0 °F 78% 29.79 in 10.0 mi SSW 12.7 mph 19.6 mph N/A   Overcast
8:36 AM 36.5 °F 29.2 °F 30.2 °F 78% 29.80 in 10.0 mi SW 10.4 mph - N/A   Overcast
8:55 AM 36.5 °F 29.2 °F 30.4 °F 78% 29.80 in 10.0 mi SW 10.4 mph 16.1 mph N/A   Overcast
9:15 AM 36.5 °F 29.7 °F 30.6 °F 79% 29.81 in 10.0 mi SW 9.2 mph 17.3 mph N/A   Overcast
9:36 AM 36.9 °F 30.1 °F 30.9 °F 79% 29.82 in 10.0 mi West 9.2 mph - N/A   Overcast
9:55 AM 38.5 °F 29.2 °F 30.9 °F 74% 29.83 in 10.0 mi West 17.3 mph 25.3 mph N/A   Overcast
10:15 AM 38.7 °F 29.1 °F 30.2 °F 72% 29.83 in 10.0 mi West 18.4 mph 24.2 mph N/A   Overcast
10:35 AM 39.2 °F 30.8 °F 30.2 °F 70% 29.83 in 10.0 mi WSW 15.0 mph 23.0 mph N/A   Mostly Cloudy
10:55 AM 39.2 °F 29.8 °F 30.0 °F 70% 29.83 in 10.0 mi WSW 18.4 mph 25.3 mph N/A   Overcast
11:16 AM 39.4 °F 30.1 °F 29.5 °F 68% 29.83 in 10.0 mi WSW 18.4 mph 29.9 mph N/A   Mostly Cloudy
11:35 AM 40.1 °F 31.6 °F 28.8 °F 64% 29.83 in 10.0 mi WSW 16.1 mph 29.9 mph N/A   Scattered Clouds
12:16 PM 40.3 °F 31.3 °F 28.0 °F 62% 29.83 in 10.0 mi West 18.4 mph 29.9 mph N/A   Scattered Clouds
12:35 PM 39.2 °F 29.6 °F 27.7 °F 63% 29.83 in 10.0 mi West 19.6 mph 27.6 mph N/A   Mostly Cloudy
12:55 PM 38.7 °F 28.8 °F 27.7 °F 65% 29.83 in 10.0 mi WSW 19.6 mph 26.5 mph N/A   Overcast
1:15 PM 38.3 °F 27.6 °F 28.0 °F 67% 29.83 in 10.0 mi West 23.0 mph 31.1 mph N/A   Overcast
1:35 PM 37.4 °F 28.2 °F 27.1 °F 66% 29.86 in 10.0 mi West 16.1 mph 38.0 mph N/A   Overcast
1:56 PM 37.4 °F 27.5 °F 26.6 °F 65% 29.87 in 10.0 mi West 18.4 mph 31.1 mph N/A   Overcast
2:15 PM 37.4 °F 28.5 °F 26.2 °F 64% 29.89 in 10.0 mi WSW 15.0 mph 29.9 mph N/A   Overcast
2:35 PM 37.4 °F 29.3 °F 26.4 °F 65% 29.90 in 10.0 mi West 12.7 mph 29.9 mph N/A   Overcast
2:55 PM 37.6 °F 27.7 °F 26.4 °F 64% 29.92 in 10.0 mi West 18.4 mph 25.3 mph N/A   Overcast
3:15 PM 37.6 °F 28.1 °F 26.6 °F 65% 29.93 in 10.0 mi WSW 17.3 mph 25.3 mph N/A   Overcast
3:36 PM 37.6 °F 28.4 °F 26.6 °F 65% 29.95 in 10.0 mi West 16.1 mph 25.3 mph N/A   Overcast
3:55 PM 37.4 °F 28.2 °F 27.3 °F 67% 29.96 in 10.0 mi West 16.1 mph 24.2 mph N/A   Overcast
4:15 PM 37.4 °F 30.3 °F 27.3 °F 67% 29.98 in 10.0 mi West 10.4 mph 25.3 mph N/A   Overcast
4:36 PM 37.4 °F 29.8 °F 26.6 °F 65% 30.00 in 10.0 mi West 11.5 mph 27.6 mph N/A   Overcast
4:55 PM 37.4 °F 28.9 °F 26.1 °F 64% 30.03 in 10.0 mi West 13.8 mph 28.8 mph N/A   Overcast
5:15 PM 37.0 °F 27.0 °F 25.7 °F 64% 30.05 in 10.0 mi West 18.4 mph 25.3 mph N/A   Overcast
5:35 PM 36.9 °F 26.8 °F 24.3 °F 60% 30.07 in 10.0 mi West 18.4 mph 34.5 mph N/A   Overcast
5:55 PM 36.5 °F 26.3 °F 24.1 °F 61% 30.09 in 10.0 mi WNW 18.4 mph 26.5 mph N/A   Overcast
6:15 PM 36.5 °F 27.4 °F 24.4 °F 62% 30.11 in 10.0 mi West 15.0 mph 27.6 mph N/A   Overcast
6:35 PM 36.3 °F 27.1 °F 24.4 °F 62% 30.14 in 10.0 mi West 15.0 mph 28.8 mph N/A   Overcast
6:55 PM 36.1 °F 28.2 °F 24.3 °F 62% 30.15 in 10.0 mi WNW 11.5 mph 28.8 mph N/A   Overcast
7:16 PM 36.1 °F 28.2 °F 23.9 °F 61% 30.18 in 10.0 mi West 11.5 mph 24.2 mph N/A   Overcast
7:35 PM 36.5 °F 27.4 °F 23.9 °F 60% 30.20 in 10.0 mi WNW 15.0 mph 24.2 mph N/A   Overcast
7:55 PM 36.5 °F 27.8 °F 23.9 °F 60% 30.22 in 10.0 mi West 13.8 mph 26.5 mph N/A   Overcast
8:16 PM 36.7 °F 27.6 °F 23.2 °F 58% 30.24 in 10.0 mi West 15.0 mph 25.3 mph N/A   Overcast
8:35 PM 36.5 °F 27.8 °F 23.0 °F 58% 30.25 in 10.0 mi West 13.8 mph 26.5 mph N/A   Overcast
9:15 PM 36.5 °F 28.7 °F 22.8 °F 58% 30.28 in 10.0 mi West 11.5 mph 20.7 mph N/A   Overcast
9:35 PM 36.5 °F 29.2 °F 22.8 °F 58% 30.29 in 10.0 mi West 10.4 mph 23.0 mph N/A   Overcast
9:55 PM 36.3 °F 28.0 °F 23.0 °F 59% 30.30 in 10.0 mi West 12.7 mph 23.0 mph N/A   Overcast
10:15 PM 36.1 °F 27.7 °F 23.2 °F 59% 30.31 in 10.0 mi West 12.7 mph 23.0 mph N/A   Overcast
10:35 PM 36.0 °F 28.5 °F 23.5 °F 61% 30.32 in 10.0 mi West 10.4 mph 20.7 mph N/A   Overcast
10:55 PM 35.8 °F 27.8 °F 23.5 °F 61% 30.34 in 10.0 mi West 11.5 mph 19.6 mph N/A   Overcast
11:15 PM 35.8 °F 29.4 °F 23.7 °F 62% 30.35 in 10.0 mi West 8.1 mph - N/A   Overcast
11:36 PM 35.6 °F 28.0 °F 23.4 °F 61% 30.37 in 10.0 mi West 10.4 mph 20.7 mph N/A   Overcast
11:55 PM 34.9 °F 26.2 °F 22.8 °F 61% 30.38 in 10.0 mi WNW 12.7 mph 19.6 mph N/A   Mostly Cloudy